Location: Haliburton Scout Reserve
(45.0900°N, 78.3200°W)
Time: 02:32:08
(UTC-04:00)

ESTCUBE 1 - Pass Details

Date: 17 May 2022
Orbit: 644 x 659 km, 97.9° (Epoch: 27 June)

Event Time Altitude Azimuth Distance (km) Brightness Sun altitude
Exits shadow 00:21:08 23° 255° (WSW) 1,398 ? -24.6°
Maximum altitude 00:21:43 23° 266° (W) 1,376 ? -24.7°
Drops below altitude 10° 00:25:21 10° 320° (NW) 2,073 ? -24.8°
Sets 00:27:58 0° 335° (NNW) 2,987 ? -24.9°
